Weather History for Mobridge, SD

Change the Weather History Date:

Saturday, July 6, 2013

  Actual Average Record
Temperature  
Mean Temperature 79 °F 72 °F  
Max Temperature 90 °F 84 °F 114 °F (1936)
Min Temperature 67 °F 59 °F 42 °F (1915)
Degree Days  
Heating Degree Days 0 0  
Month to date heating degree days 0 5  
Since 1 June heating degree days 68 80  
Since 1 July heating degree days 0 5  
Cooling Degree Days 14 7  
Month to date cooling degree days 44 40  
Year to date cooling degree days 170 155  
Since 1 June cooling degree days 155 139  
Growing Degree Days 28 (Base 50)    
Moisture  
Dew Point 65 °F    
Average Humidity 70    
Maximum Humidity 93    
Minimum Humidity 46    
Precipitation  
Precipitation 0.09 in 0.10 in 1.85 in (1994)
Month to date precipitation 0.26 0.49  
Year to date precipitation 9.26 9.67  
Sea Level Pressure  
Sea Level Pressure 29.72 in    
Wind  
Wind Speed 9 mph (NE)    
Max Wind Speed 17 mph    
Max Gust Speed 23 mph    
Visibility 9 miles    
Events Rain , Thunderstorm    
T = Trace of Precipitation, MM = Missing Value Source: NWS Daily Summary

Daily Weather History Graph

Daily Weather History Graph

Search for Another Location

Airport:

Trip Planner

Search our weather history database for the weather conditions in past years. The results will help you decide how hot, cold, wet, or windy it might be!

Date:

Astronomy

Jul. 06, 2013 Rise Set
Actual Time 6:00 AM CDT 9:32 PM CDT
Civil Twilight 5:22 AM CDT 10:09 PM CDT
Nautical Twilight 4:33 AM CDT 10:59 PM CDT
Astronomical Twilight 3:27 AM CDT 12:03 AM CDT
Moon 4:50 AM CDT (7/6) 8:12 PM CDT (7/6)
Length of Visible Light 16h 47m
Length of Day
15h 32m
Waning Crescent, 2% of the Moon is Illuminated
Jul 6
Waning Crescent
Jul 8
New
Jul 15
First Quarter
Jul 22
Full
Jul 29
Last Quarter

Hourly Weather History & Observations

Time (CDT) Temp. Heat Index Dew Point Humidity Pressure Visibility Wind Dir Wind Speed Gust Speed Precip Events Conditions
12:52 AM 69.1 °F - 63.0 °F 81% 29.77 in 2.0 mi Calm Calm - 0.09 in Rain Heavy Rain
12:57 AM 68.0 °F - 62.6 °F 83% 29.79 in 1.8 mi ENE 6.9 mph - 0.04 in Rain , Thunderstorm Heavy Rain
1:04 AM 68.0 °F - 64.4 °F 88% 29.78 in 2.5 mi NE 13.8 mph - 0.10 in Rain , Thunderstorm Heavy Rain
1:11 AM 68.0 °F - 64.4 °F 88% 29.77 in 5.0 mi NE 17.3 mph - 0.12 in Rain , Thunderstorm Rain
1:13 AM 68.0 °F - 64.4 °F 88% 29.77 in 6.0 mi NE 15.0 mph - 0.12 in Rain Light Rain
1:52 AM 68.0 °F - 64.0 °F 87% 29.73 in 10.0 mi ENE 10.4 mph - 0.14 in   Mostly Cloudy
2:05 AM 66.2 °F - 64.4 °F 94% 29.76 in 10.0 mi ENE 10.4 mph - N/A Thunderstorm Partly Cloudy
2:45 AM 66.2 °F - 64.4 °F 94% 29.73 in 10.0 mi East 15.0 mph - 0.00 in Rain Light Rain
2:52 AM 66.9 °F - 64.0 °F 90% 29.70 in 10.0 mi ENE 13.8 mph - 0.00 in Rain Light Rain
3:52 AM 66.9 °F - 64.0 °F 90% 29.70 in 10.0 mi East 11.5 mph - 0.00 in   Clear
4:52 AM 66.9 °F - 64.0 °F 90% 29.67 in 10.0 mi East 15.0 mph 19.6 mph N/A   Clear
5:52 AM 66.9 °F - 63.0 °F 87% 29.68 in 10.0 mi East 15.0 mph 21.9 mph N/A   Clear
6:52 AM 66.9 °F - 64.0 °F 90% 29.68 in 10.0 mi ESE 12.7 mph - N/A   Clear
7:52 AM 69.1 °F - 64.9 °F 87% 29.68 in 10.0 mi ESE 11.5 mph - N/A   Clear
8:52 AM 73.0 °F - 66.0 °F 79% 29.68 in 10.0 mi ESE 9.2 mph - N/A   Partly Cloudy
9:52 AM 75.9 °F - 64.9 °F 69% 29.69 in 10.0 mi South 3.5 mph - N/A   Clear
10:52 AM 78.1 °F - 64.9 °F 64% 29.68 in 10.0 mi Calm Calm - N/A   Clear
11:52 AM 81.0 °F 83.0 °F 66.0 °F 60% 29.68 in 10.0 mi NW 4.6 mph - N/A   Clear
12:52 PM 82.9 °F 85.4 °F 66.9 °F 58% 29.70 in 10.0 mi North 8.1 mph - N/A   Clear
1:52 PM 84.9 °F 87.6 °F 66.9 °F 55% 29.70 in 10.0 mi NNE 8.1 mph 17.3 mph N/A   Clear
2:52 PM 87.1 °F 89.2 °F 66.0 °F 49% 29.71 in 10.0 mi North 8.1 mph - N/A   Partly Cloudy
3:52 PM 87.1 °F 89.2 °F 66.0 °F 49% 29.71 in 10.0 mi NNE 8.1 mph - N/A   Partly Cloudy
4:52 PM 89.1 °F 92.1 °F 66.9 °F 48% 29.72 in 10.0 mi Variable 6.9 mph - N/A   Mostly Cloudy
5:52 PM 88.0 °F 90.3 °F 66.0 °F 48% 29.72 in 10.0 mi NNW 11.5 mph - N/A   Clear
6:52 PM 88.0 °F 89.6 °F 64.9 °F 46% 29.71 in 10.0 mi North 9.2 mph - N/A   Clear
7:52 PM 86.0 °F 88.2 °F 66.0 °F 51% 29.72 in 10.0 mi North 9.2 mph - N/A   Clear
8:52 PM 82.0 °F 84.9 °F 68.0 °F 62% 29.74 in 10.0 mi North 5.8 mph - N/A   Clear
9:52 PM 75.0 °F - 68.0 °F 79% 29.75 in 10.0 mi North 4.6 mph - N/A   Clear
10:52 PM 73.9 °F - 66.9 °F 79% 29.77 in 10.0 mi North 6.9 mph - N/A   Clear
11:52 PM 73.0 °F - 66.9 °F 81% 29.79 in 10.0 mi NNE 6.9 mph - N/A   Clear